CAPE
945 1620 2284 1948 1382 1300 1144 950 877 847 655 234 514 485 84 26 23 113 188 518 688 328 75 22 2 0 0 0 0 0 0 0 0 0 0 70 0 8 245 125 305 58 63
1147 1347 2150 2062 1779 1500 1204 1219 1249 1009 828 974 494 22 3 1 4 18 75 355 290 70 56 14 5 1 0 0 0 0 0 0 0 0 0 118 21 299 113 23 176 66 100
1251 1211 1567 2130 2005 1745 1523 1265 1310 967 788 847 379 55 5 2 8 17 7 89 231 47 12 9 4 2 0 0 0 0 0 0 1 0 1 2 72 220 12 17 8 9 12
1240 1208 1521 2090 1940 1765 1562 1112 990 601 345 928 648 105 4 1 6 14 10 6 8 11 10 7 4 1 0 0 0 0 0 0 12 104 11 1 4 10 7 4 7 4 2
1160 1343 1762 2040 1933 1739 1324 980 486 254 245 867 973 594 5 0 1 4 7 11 9 10 7 3 2 1 0 0 0 0 0 0 0 16 16 0 0 4 4 4 1 1 1
1146 1530 1828 1879 1883 1676 1397 918 327 183 159 537 1073 608 14 0 2 1 3 4 5 5 3 2 0 0 0 0 0 0 0 0 0 5 35 34 12 18 3 0 0 0 0
1363 1607 1584 1971 1837 1568 1320 916 537 188 147 392 999 507 99 0 0 2 1 2 3 2 2 1 0 0 11 6 0 0 0 0 0 0 0 30 16 20 0 0 0 0 0
1430 1538 1570 1742 1662 1478 1256 892 524 332 376 623 1222 711 229 49 0 0 0 0 0 0 0 9 21 0 0 4 0 0 0 0 0 0 0 25 76 22 0 0 0 0 0
1358 1449 1441 1410 1310 1187 1008 639 334 585 845 889 1166 819 513 169 22 0 20 18 2 0 0 8 9 0 0 0 0 0 0 0 0 0 0 0 5 53 0 0 0 0 0
1155 1256 1236 1187 1098 780 515 329 167 669 544 816 773 428 174 104 75 42 69 41 0 0 0 4 1 0 0 0 0 0 0 0 0 0 0 0 0 10 35 1 0 0 0
972 1000 1041 986 856 611 322 54 76 370 217 349 318 41 35 16 6 0 7 14 14 0 0 0 0 0 0 0 0 0 0 0 0 0 0 0 0 16 172 48 0 0 0
1068 1099 912 831 740 536 314 5 2 40 121 156 95 19 22 10 5 9 5 0 0 0 0 0 0 0 0 0 0 0 0 0 0 0 0 0 0 0 66 209 1 0 0
987 1070 994 946 808 549 258 89 33 11 0 3 25 15 9 12 27 20 0 0 0 0 0 0 0 0 0 0 0 0 0 0 0 0 0 0 0 0 0 220 18 0 0
992 843 884 858 921 712 413 360 173 97 116 92 23 0 0 0 5 7 0 0 0 0 0 0 0 0 0 0 0 0 0 0 0 0 0 0 0 0 0 137 237 0 0
826 947 835 942 1053 859 639 570 383 137 184 161 174 61 0 0 0 0 0 0 0 0 0 0 0 0 0 0 0 0 0 0 0 0 0 0 0 0 0 0 80 104 45
743 923 666 704 1228 1122 777 594 434 231 260 220 195 176 63 10 0 0 0 0 0 0 0 0 0 0 0 0 0 0 0 0 0 0 0 0 0 0 0 1 0 1 45
532 1005 898 635 826 962 837 702 508 313 328 200 227 179 114 50 13 0 0 0 0 0 0 0 0 0 0 0 0 0 10 20 8 20 13 17 19 15 8 14 12 9 10
706 585 785 717 712 799 863 814 643 571 294 369 214 185 155 102 57 27 8 15 3 4 2 0 0 0 0 1 6 10 10 31 38 29 46 58 72 60 33 4 20 22 1
916 850 664 698 670 637 643 663 625 504 388 394 254 172 179 195 84 99 121 128 163 164 171 136 209 80 102 18 12 11 9 11 43 0 54 53 66 15 9 6 0 1 0
885 1032 945 821 809 724 633 531 450 398 314 299 282 241 289 310 203 133 216 266 218 388 313 276 203 155 141 20 36 51 12 12 10 0 25 62 29 8 2 0 0 0 0
748 955 916 1010 791 612 434 391 265 212 288 245 265 300 689 387 512 341 287 271 607 569 462 633 344 176 111 16 44 31 28 26 17 0 0 21 15 0 7 1 0 0 0
770 798 900 1004 908 814 666 551 467 380 415 434 435 474 664 654 515 429 647 741 760 468 520 541 396 301 137 62 33 39 40 5 0 0 0 7 22 25 10 0 0 0 0
428 769 1010 978 986 883 800 702 676 701 589 636 649 611 598 558 496 682 808 588 516 576 433 422 294 416 25 20 23 50 33 4 2 0 21 35 23 4 0 0 0 0 0
0 307 923 1016 1038 976 925 942 906 806 766 862 922 875 792 629 548 443 553 547 505 342 196 27 4 0 0 0 0 14 37 43 24 6 1 5 3 0 0 1 1 0 0
0 0 321 976 937 977 956 940 817 747 681 826 662 830 826 660 460 161 12 0 0 0 0 0 0 0 0 0 0 0 0 2 7 19 13 0 16 26 13 3 2 3 0
0 0 0 323 707 765 707 653 554 593 481 530 620 548 544 417 129 0 0 0 0 0 0 0 0 0 0 0 0 0 3 0 0 4 8 13 12 38 22 17 13 0 0
CIN
-58 -1 0 0 0 0 0 -1 -10 -9 -26 -120 -38 -52 -245 -90 -277 -165 -104 -28 -8 -38 -88 -189 0 0 0 0 0 0 0 0 0 0 0 -60 0 0 -39 -69 -17 -33 -13
-68 -5 0 0 0 0 -1 0 0 0 -4 0 -33 -243 0 0 0 -252 -156 -45 -45 -136 -137 0 0 0 0 0 0 0 0 0 0 0 -1 -65 -8 -40 -90 -9 -48 -20 -61
-60 -20 -1 0 0 0 0 0 0 0 0 -1 -41 -174 0 0 0 0 0 -137 -66 -129 0 0 0 0 0 0 0 0 0 0 -1 0 -1 -2 -10 -39 0 -1 0 0 -1
-71 -32 -1 0 0 0 0 0 0 0 -27 0 -7 -149 0 0 0 0 0 0 0 0 0 0 0 0 0 0 0 0 0 0 -35 -99 -11 -1 0 0 0 0 0 0 0
-66 -20 -1 0 0 0 0 0 -18 -53 -50 -1 0 -8 -154 0 0 0 0 0 0 0 0 0 0 0 0 0 0 0 0 0 0 -43 -69 0 0 0 0 0 0 0 0
-53 -12 -5 0 0 0 -1 -8 -46 -78 -89 -13 -1 -7 -172 0 0 0 0 0 0 0 0 0 0 0 0 0 0 0 0 0 0 -27 -81 -64 -84 -68 0 0 0 0 0
-29 -5 -7 0 0 0 -2 -17 -41 -92 -99 -35 -8 -25 -132 0 0 0 0 0 0 0 0 0 0 0 -153 -92 0 0 0 0 0 0 0 -92 -91 -67 0 0 0 0 0
-28 -6 -4 0 0 0 -1 -20 -57 -76 -66 -40 -9 -34 -79 -231 0 0 0 0 0 0 0 -124 -201 0 0 -106 0 0 0 0 0 0 0 -108 -28 -66 0 0 0 0 0
-26 -4 -8 -4 -4 -6 -11 -41 -87 -51 -27 -24 -16 -26 -48 -124 -178 0 -214 -227 -52 0 0 -239 -260 0 0 0 0 0 0 0 0 0 0 0 -21 -32 0 0 0 0 0
-37 -18 -13 -19 -21 -39 -60 -98 -139 -48 -59 -34 -35 -65 -126 -178 -204 -288 -229 -194 0 0 0 -291 -39 0 0 0 0 0 0 0 0 0 0 0 0 -10 -43 0 0 0 0
-54 -33 -8 -27 -48 -86 -138 -230 -230 -97 -120 -88 -83 -251 -297 -264 -222 -1 -286 -257 -270 0 0 0 0 0 0 0 0 0 0 0 0 0 0 0 0 -15 -1 -23 0 0 0
-39 -21 -27 -31 -51 -105 -161 -165 -93 -275 -184 -150 -163 -303 -298 -236 -177 -277 -205 0 0 0 0 0 0 0 0 0 0 0 0 0 0 0 0 0 0 0 -9 -1 -4 0 0
-38 -29 -30 -30 -35 -79 -196 -242 -213 -216 0 -49 -304 -244 -290 -277 -244 -235 0 0 0 0 0 0 0 0 0 0 0 0 0 0 0 0 0 0 0 0 0 -2 -11 0 0
-39 -30 -43 -12 -13 -37 -62 -164 -172 -195 -190 -184 -210 0 0 0 -201 -309 0 0 0 0 0 0 0 0 0 0 0 0 0 0 0 0 0 0 0 0 0 -4 -1 0 0
-30 -34 -38 -18 -12 -23 -33 -69 -78 -173 -163 -170 -166 -189 0 0 0 0 0 0 0 0 0 0 0 0 0 0 0 0 0 0 0 0 0 0 0 0 0 0 -12 -4 -1
-21 -23 -73 -36 -18 -5 -25 -73 -99 -131 -105 -121 -143 -144 -193 -231 0 0 0 0 0 0 0 0 0 0 0 0 0 0 0 0 0 0 0 0 0 0 0 -1 0 -2 -18
-22 -11 -22 -45 -17 -18 -30 -51 -62 -91 -70 -116 -111 -129 -162 -208 -200 0 0 0 0 0 0 0 0 0 0 0 0 0 -3 -7 -1 -6 -9 -6 -3 0 0 0 0 -1 -17
-20 -11 -15 -13 -18 -26 -24 -36 -49 -36 -68 -41 -101 -109 -124 -151 -171 -192 -175 -141 -42 -19 -19 0 0 0 0 -1 -13 -2 -2 -9 -10 -7 -2 -4 -1 0 -1 0 -28 -6 -8
-18 -14 -35 -35 -16 -32 -38 -40 -46 -27 -51 -24 -58 -85 -82 -89 -134 -120 -111 -82 -42 -29 -26 -22 -5 -4 -2 -3 -6 -7 -6 -6 -4 0 -6 -6 -3 -6 -17 -7 -1 -1 0
-15 -6 -6 -14 -15 -14 -14 -40 -45 -39 -54 -40 -33 -39 -26 -27 -76 -108 -70 -34 -21 -2 -2 0 -1 0 0 -14 -6 -5 0 0 -5 0 -12 -5 -4 0 -1 0 0 0 0
-28 -21 -15 -1 -13 -10 -39 -62 -83 -77 -32 -22 -17 -11 0 -8 -4 -20 -29 -23 0 0 0 0 0 -5 -7 -4 -11 -14 -9 -11 -25 0 0 -1 -1 0 -2 -1 0 0 0
-30 -35 -25 -18 -19 -15 -18 -24 -27 -25 -14 -4 -5 -1 0 0 -4 -14 -1 0 -4 -16 0 -2 -3 -7 -4 -24 -9 -5 -6 -7 0 0 0 -4 0 0 -1 0 0 0 0
-41 -40 -33 -35 -30 -25 -25 -16 -8 -6 -8 -15 -11 -3 -9 -6 0 0 0 0 0 -2 -7 -8 -13 -1 -14 -27 -10 -4 -7 -6 -7 -1 -2 0 0 -3 0 0 0 0 0
0 -51 -41 -41 -39 -28 -20 -9 -2 -12 -23 -15 -3 -6 -1 -3 -3 -5 -2 -3 0 -1 -11 -36 -114 0 0 0 0 -2 -3 -2 -5 -8 -6 -7 -4 0 0 -1 -5 0 0
0 0 -102 -38 -39 -35 -36 -26 -32 -25 -30 -11 -17 -7 -7 -6 -13 -34 -58 0 0 0 0 0 0 0 0 0 0 0 0 -2 -8 -6 -7 -1 -3 -1 -7 -10 0 0 0
0 0 0 -75 -44 -42 -49 -36 -43 -30 -31 -25 -25 -25 -25 -29 -46 0 0 0 0 0 0 0 0 0 0 0 0 -1 -1 0 0 -4 -3 -4 -8 0 0 -1 -4 0 0
Wind_Speed
16 15 18 19 19 19 20 21 21 20 18 18 15 19 nan nan nan 18 20 22 22 24 nan nan nan nan nan nan nan nan nan nan nan nan nan nan nan nan 17 15 13 nan nan
21 17 20 20 20 20 20 21 21 19 18 17 20 nan nan nan nan nan nan 20 22 nan nan nan nan nan nan nan nan nan nan nan nan nan nan 11 nan 17 17 nan 15 nan 20
21 20 18 21 21 21 21 21 20 19 18 20 20 nan nan nan nan nan nan nan 22 nan nan nan nan nan nan nan nan nan nan nan nan nan nan nan nan 16 nan nan nan nan nan
23 20 20 22 21 21 22 22 20 20 18 18 19 20 nan nan nan nan nan nan nan nan nan nan nan nan nan nan nan nan nan nan nan 16 nan nan nan nan nan nan nan nan nan
23 21 20 22 22 23 23 21 20 20 18 18 18 22 nan nan nan nan nan nan nan nan nan nan nan nan nan nan nan nan nan nan nan nan nan nan nan nan nan nan nan nan nan
24 21 21 24 23 22 20 21 19 19 18 19 19 23 nan nan nan nan nan nan nan nan nan nan nan nan nan nan nan nan nan nan nan nan nan nan nan nan nan nan nan nan nan
28 25 22 25 23 22 21 19 17 18 19 19 20 23 nan nan nan nan nan nan nan nan nan nan nan nan nan nan nan nan nan nan nan nan nan nan nan nan nan nan nan nan nan
30 27 26 25 25 22 21 20 18 17 18 17 17 24 21 nan nan nan nan nan nan nan nan nan nan nan nan nan nan nan nan nan nan nan nan nan nan nan nan nan nan nan nan
32 28 27 24 24 24 22 21 20 20 20 16 16 21 21 22 nan nan nan nan nan nan nan nan nan nan nan nan nan nan nan nan nan nan nan nan nan nan nan nan nan nan nan
33 30 27 26 23 22 20 23 22 23 23 25 24 21 19 20 nan nan nan nan nan nan nan nan nan nan nan nan nan nan nan nan nan nan nan nan nan nan nan nan nan nan nan
30 29 27 24 22 21 22 nan nan 24 25 24 21 nan nan nan nan nan nan nan nan nan nan nan nan nan nan nan nan nan nan nan nan nan nan nan nan nan 26 nan nan nan nan
31 29 26 24 23 22 23 nan nan nan 21 20 nan nan nan nan nan nan nan nan nan nan nan nan nan nan nan nan nan nan nan nan nan nan nan nan nan nan nan 32 nan nan nan
32 33 28 27 22 23 24 nan nan nan nan nan nan nan nan nan nan nan nan nan nan nan nan nan nan nan nan nan nan nan nan nan nan nan nan nan nan nan nan 30 nan nan nan
34 28 31 28 23 24 23 24 24 nan 24 nan nan nan nan nan nan nan nan nan nan nan nan nan nan nan nan nan nan nan nan nan nan nan nan nan nan nan nan 32 36 nan nan
34 32 29 31 27 25 25 23 24 23 23 22 24 nan nan nan nan nan nan nan nan nan nan nan nan nan nan nan nan nan nan nan nan nan nan nan nan nan nan nan nan 32 nan
31 31 36 33 25 24 25 24 25 24 24 23 24 26 nan nan nan nan nan nan nan nan nan nan nan nan nan nan nan nan nan nan nan nan nan nan nan nan nan nan nan nan nan
32 28 27 25 22 27 26 26 27 26 26 25 26 28 28 nan nan nan nan nan nan nan nan nan nan nan nan nan nan nan nan nan nan nan nan nan nan nan nan nan nan nan nan
37 34 33 29 29 29 28 28 29 28 29 27 29 30 30 29 nan nan nan nan nan nan nan nan nan nan nan nan nan nan nan nan nan nan nan nan nan nan nan nan nan nan nan
40 37 34 34 31 32 33 34 33 29 31 31 30 32 32 31 nan nan 29 26 24 24 25 27 26 nan 25 nan nan nan nan nan nan nan nan nan nan nan nan nan nan nan nan
39 39 40 42 41 38 38 38 39 36 34 32 32 33 33 31 32 33 31 29 28 28 27 28 28 27 28 nan nan nan nan nan nan nan nan nan nan nan nan nan nan nan nan
46 41 42 41 43 43 40 41 41 38 37 36 32 31 32 31 33 35 34 32 35 32 30 29 30 29 30 nan nan nan nan nan nan nan nan nan nan nan nan nan nan nan nan
43 45 49 40 43 41 41 41 41 40 38 38 36 36 36 33 32 45 38 39 40 35 34 33 34 35 37 nan nan nan nan nan nan nan nan nan nan nan nan nan nan nan nan
44 41 41 49 46 41 43 45 44 43 43 42 41 41 36 40 42 34 44 45 39 37 36 36 39 41 nan nan nan nan nan nan nan nan nan nan nan nan nan nan nan nan nan
nan 46 46 41 46 51 51 46 44 43 44 38 40 38 39 42 43 40 38 37 47 52 47 nan nan nan nan nan nan nan nan nan nan nan nan nan nan nan nan nan nan nan nan
nan nan 49 52 47 47 54 57 46 53 44 41 41 43 41 43 46 45 nan nan nan nan nan nan nan nan nan nan nan nan nan nan nan nan nan nan nan nan nan nan nan nan nan
nan nan nan 45 46 46 47 46 52 50 52 43 46 50 46 45 46 nan nan nan nan nan nan nan nan nan nan nan nan nan nan nan nan nan nan nan nan nan nan nan nan nan nan
Wind_Direction
255 271 287 285 285 283 282 280 281 276 272 278 279 272 nan nan nan 271 276 280 282 282 nan nan nan nan nan nan nan nan nan nan nan nan nan nan nan nan 292 295 293 nan nan
263 270 282 282 281 278 275 274 275 273 268 271 269 nan nan nan nan nan nan 282 282 nan nan nan nan nan nan nan nan nan nan nan nan nan nan 310 nan 301 294 nan 306 nan 317
256 261 268 277 275 275 271 270 271 270 265 269 269 nan nan nan nan nan nan nan 281 nan nan nan nan nan nan nan nan nan nan nan nan nan nan nan nan 299 nan nan nan nan nan
256 255 259 274 277 272 269 269 268 267 264 267 269 266 nan nan nan nan nan nan nan nan nan nan nan nan nan nan nan nan nan nan nan 305 nan nan nan nan nan nan nan nan nan
252 250 255 270 272 273 272 269 266 267 264 263 268 269 nan nan nan nan nan nan nan nan nan nan nan nan nan nan nan nan nan nan nan nan nan nan nan nan nan nan nan nan nan
238 243 251 265 268 269 268 268 269 270 265 260 266 266 nan nan nan nan nan nan nan nan nan nan nan nan nan nan nan nan nan nan nan nan nan nan nan nan nan nan nan nan nan
241 244 249 261 263 262 264 264 267 268 265 261 268 271 nan nan nan nan nan nan nan nan nan nan nan nan nan nan nan nan nan nan nan nan nan nan nan nan nan nan nan nan nan
242 244 249 258 262 261 259 260 263 262 264 261 266 274 279 nan nan nan nan nan nan nan nan nan nan nan nan nan nan nan nan nan nan nan nan nan nan nan nan nan nan nan nan
237 236 244 249 256 260 260 259 261 261 253 251 267 277 282 283 nan nan nan nan nan nan nan nan nan nan nan nan nan nan nan nan nan nan nan nan nan nan nan nan nan nan nan
233 232 237 247 252 252 249 261 261 261 254 252 260 266 272 278 nan nan nan nan nan nan nan nan nan nan nan nan nan nan nan nan nan nan nan nan nan nan nan nan nan nan nan
232 239 234 244 254 260 255 nan nan 266 264 261 261 nan nan nan nan nan nan nan nan nan nan nan nan nan nan nan nan nan nan nan nan nan nan nan nan nan 331 nan nan nan nan
232 236 239 241 252 263 265 nan nan nan 258 256 nan nan nan nan nan nan nan nan nan nan nan nan nan nan nan nan nan nan nan nan nan nan nan nan nan nan nan 336 nan nan nan
221 229 233 235 249 261 264 nan nan nan nan nan nan nan nan nan nan nan nan nan nan nan nan nan nan nan nan nan nan nan nan nan nan nan nan nan nan nan nan 332 nan nan nan
217 224 234 234 248 250 259 267 266 nan 269 nan nan nan nan nan nan nan nan nan nan nan nan nan nan nan nan nan nan nan nan nan nan nan nan nan nan nan nan 330 334 nan nan
217 221 241 238 245 253 261 259 261 254 260 268 275 nan nan nan nan nan nan nan nan nan nan nan nan nan nan nan nan nan nan nan nan nan nan nan nan nan nan nan nan 332 nan
215 217 231 239 246 256 267 270 268 258 260 259 264 264 nan nan nan nan nan nan nan nan nan nan nan nan nan nan nan nan nan nan nan nan nan nan nan nan nan nan nan nan nan
257 240 238 246 240 263 268 270 266 266 260 263 263 267 265 nan nan nan nan nan nan nan nan nan nan nan nan nan nan nan nan nan nan nan nan nan nan nan nan nan nan nan nan
246 256 260 255 252 258 262 263 263 264 263 263 266 264 267 266 nan nan nan nan nan nan nan nan nan nan nan nan nan nan nan nan nan nan nan nan nan nan nan nan nan nan nan
254 256 261 259 262 261 262 264 266 263 264 264 263 266 271 272 nan nan 274 275 279 280 284 290 294 nan 297 nan nan nan nan nan nan nan nan nan nan nan nan nan nan nan nan
254 257 254 258 261 260 260 261 262 263 262 263 262 266 273 272 277 275 274 277 279 279 280 284 289 291 298 nan nan nan nan nan nan nan nan nan nan nan nan nan nan nan nan
256 256 256 258 261 259 258 260 261 264 263 262 265 268 270 276 279 278 275 275 272 276 279 280 282 286 290 nan nan nan nan nan nan nan nan nan nan nan nan nan nan nan nan
251 255 257 262 258 259 259 260 262 265 266 266 265 265 267 270 277 266 270 269 271 274 278 283 285 287 292 nan nan nan nan nan nan nan nan nan nan nan nan nan nan nan nan
250 255 260 261 262 262 263 259 256 261 259 261 261 262 264 267 267 275 260 258 265 274 281 286 288 293 nan nan nan nan nan nan nan nan nan nan nan nan nan nan nan nan nan
nan 243 250 261 265 259 260 261 263 259 261 262 263 262 260 265 268 268 268 271 265 265 273 nan nan nan nan nan nan nan nan nan nan nan nan nan nan nan nan nan nan nan nan
nan nan 246 246 250 255 256 258 261 257 254 259 262 266 264 262 266 271 nan nan nan nan nan nan nan nan nan nan nan nan nan nan nan nan nan nan nan nan nan nan nan nan nan
nan nan nan 252 251 260 263 264 270 267 266 263 260 262 264 264 268 nan nan nan nan nan nan nan nan nan nan nan nan nan nan nan nan nan nan nan nan nan nan nan nan nan nan